[Iaude] MPEC B126: 2019 BE3 [a=1.23,e=0.59,i=8.5,H=24.4]

mpec at mpcdb1.cfa.harvard.edu mpec at mpcdb1.cfa.harvard.edu
Mon Jan 28 13:07:17 EST 2019


M.P.E.C. 2019-B126                               Issued 2019 Jan. 28, 18:04 UT
 
     The Minor Planet Electronic Circulars contain information on unusual
         minor planets and routine data on comets.  They are published
    on behalf of Division F of the International Astronomical Union by the
          Minor Planet Center, Smithsonian Astrophysical Observatory,
                          Cambridge, MA 02138, U.S.A.

             Prepared using the Tamkin Foundation Computer Network

                              MPC at CFA.HARVARD.EDU
            URL https://www.minorplanetcenter.net/    ISSN 1523-6714


                                   2019 BE3
 
Observations:
     K19B03E* C2019 01 27.19871 07 38 20.95 +13 18 22.9                VEB126G96
     K19B03E  C2019 01 27.20430 07 38 16.22 +13 18 46.5          19.9 GVEB126G96
     K19B03E  C2019 01 27.20989 07 38 11.54 +13 19 09.5          19.5 GVEB126G96
     K19B03E  C2019 01 27.21549 07 38 06.84 +13 19 33.4          19.6 GVEB126G96
     K19B03E  C2019 01 27.41760 07 35 12.98 +13 33 45.0          20.4 GVEB126G96
     K19B03E  C2019 01 27.41841 07 35 12.32 +13 33 47.2          20.6 GVEB126G96
     K19B03E  C2019 01 27.41882 07 35 11.86 +13 33 49.7                VEB126G96
     K19B03E KC2019 01 27.89906907 28 09.12 +14 09 33.0          19.7 GVEB126J95
     K19B03E KC2019 01 27.90311007 28 05.21 +14 09 52.8          19.8 GVEB126J95
     K19B03E KC2019 01 27.90715907 28 01.28 +14 10 11.9          19.5 GVEB126J95
     K19B03E  C2019 01 28.40272 07 19 36.66 +14 51 21.6          19.4 GVEB126I52
     K19B03E  C2019 01 28.40345 07 19 35.88 +14 51 25.2          19.4 GVEB126I52
     K19B03E  C2019 01 28.40417 07 19 35.08 +14 51 28.8          19.4 GVEB126I52
     K19B03E  C2019 01 28.40490 07 19 34.29 +14 51 32.1          19.2 GVEB126I52
 
Observer details:
G96 Mt. Lemmon Survey.  Observer D. C. Fuls.  Measurers B. M. Africano,
    E. J. Christensen, G. A. Farneth, D. C. Fuls, A. R. Gibbs, A. D. Grauer,
    H. Groeller, R. A. Kowalski, S. M. Larson, G. J. Leonard, T. A. Pruyne,
    R. L. Seaman, F. C. Shelly.  1.5-m reflector + 10K CCD.
I52 Steward Observatory, Mt. Lemmon Station.  Observer H. Groeller.
    Measurers B. M. Africano, E. J. Christensen, G. A. Farneth, D. C. Fuls,
    A. R. Gibbs, A. D. Grauer, H. Groeller, R. A. Kowalski, S. M. Larson,
    G. J. Leonard, T. A. Pruyne, R. L. Seaman, F. C. Shelly.  1.0-m reflector
    + CCD.
J95 Great Shefford.  Observer P. Birtwhistle.  0.41-m f/6.3
    Schmidt-Cassegrain + CCD.
 
Orbital elements:
2019 BE3                                                 Earth MOID = 0.0055 AU
Epoch 2019 Apr. 27.0 TT = JDT 2458600.5                 MPC
M  20.73411              (2000.0)            P               Q
n   0.72214989     Peri.  110.98391     -0.47543670     +0.87246355
a   1.2304137      Node   130.11666     -0.85204445     -0.42467153
e   0.5937725      Incl.    8.49679     -0.21904382     -0.24178801
P   1.36           H   24.4           G   0.15           U   7
Residuals in seconds of arc
190127 G96  0.3+  0.0     190127 G96  0.8+  0.6-    190128 I52  0.1-  0.1+
190127 G96  0.3-  0.1+    190127 G96  0.7-  0.1+    190128 I52  0.1+  0.0
190127 G96  0.1-  0.4-    190127 J95  0.2-  0.3-    190128 I52  0.1-  0.0
190127 G96  0.0   0.1-    190127 J95  0.1+  0.3+    190128 I52  0.0   0.4-
190127 G96  0.1+  0.6+    190127 J95  0.2+  0.1+

Ephemeris:
2019 BE3                 a,e,i = 1.23, 0.59, 8                   q = 0.4998
Date    TT    R. A. (2000) Decl.     Delta      r     Elong.  Phase     V
2018 12 29    08 57 54.3 +06 39 35   0.4276  1.3423   140.8    27.6    24.4
...
2019 01 13    08 48 14.1 +07 02 03   0.2413  1.2096   157.3    18.3    22.7
...
2019 01 21    08 26 35.7 +08 56 16   0.1514  1.1326   168.2    10.2    21.2
...
2019 01 27    07 40 55.3 +13 05 24   0.08979 1.0719   165.8    13.1    20.1
2019 01 28    07 26 31.6 +14 18 36   0.08043 1.0615   162.0    16.7    19.9
2019 01 29    07 08 17.1 +15 46 08   0.07153 1.0511   157.1    21.4    19.8
...
2019 02 04    02 43 14.6 +22 52 04   0.04362 0.9873    90.8    86.7    20.6
...
2019 02 12    22 58 11.2 +07 28 07   0.1021  0.8990    28.9   148.0    27.3
...
2019 02 27    22 00 13.6 +00 01 22   0.2711  0.7283    12.8   162.5    32.8

A. U. Tomatic                (C) Copyright 2019 MPC           M.P.E.C. 2019-B126



More information about the Iaude mailing list